Home   Weather   Bruck an der Mur   Past weeks

Flag for Austria Past Weather in Bruck an der Mur, Styria, Austria — Yesterday and Last 2 Weeks

Now
55 °F

Scattered clouds.


Feels Like: 52 °F
Forecast: 39 / 57 °F
Wind: 12 mph from East

Location: Zeltweg

Current Time: Apr 30, 2017 at 4:57:13 pm

Latest Report: Apr 30, 2017 at 3:50 pm


Visibility: 15 mi

Pressure: 29.98 "Hg

Humidity: 44%

Dew Point: 34 °F

Location of Bruck an der MurLocation

Past Weather in Bruck an der Mur — Graph

°F

Bruck an der Mur Temperature Yesterday

Maximum temperature yesterday: 48 °F (at 5:50 pm)
Minimum temperature yesterday: 28 °F (at 5:50 am)
Average temperature yesterday: 39 °F

High & Low Weather Summary for the Past Weeks

 TemperatureHumidityPressure
High64 °F (Apr 25, 1:20 pm)100% (Apr 24, 7:20 am)30.39 "Hg (Apr 24, 7:20 am)
Low23 °F (Apr 21, 4:50 am)29% (Apr 21, 1:20 pm)29.68 "Hg (Apr 26, 1:50 am)
Average45 °F59%29.98 "Hg
* Reported Apr 15 2:20 pm — Apr 30 2:50 pm, Bruck an der Mur, Weather by CustomWeather, © 2017

Note: Actual official high and low records may vary slightly from our data, if they occured in-between our weather recording intervals... More about our weather records

Advertising

Bruck an der Mur Weather History for the Previous 24 Hours

Scroll right to see more
 ConditionsComfort  
Time TempWeatherWind HumidityBarometerVisibility
2:50 pm
Sun, Apr 30
54 °FPartly sunny.10 mph44%29.98 "Hg16 mi
1:50 pm54 °FPartly sunny.5 mph44%30.01 "Hg16 mi
12:50 pm52 °FPartly sunny.2 mph47%30.04 "Hg12 mi
11:50 am52 °FScattered clouds.2 mph47%30.04 "Hg12 mi
11:20 am46 °FScattered clouds.3 mph57%30.04 "Hg12 mi
9:50 am41 °FScattered clouds.2 mph70%30.07 "Hg12 mi
8:50 am36 °FFog.1 mph81%30.09 "Hg2 mi
7:50 am30 °FScattered clouds.1 mph100%30.09 "Hg1 mi
6:50 am27 °FFog.1 mph100%30.09 "Hg4 mi
10:50 pm
Sat, Apr 29
36 °FPassing clouds.2 mph81%30.04 "Hg6 mi
9:50 pm36 °FPassing clouds.1 mph81%30.04 "Hg6 mi
8:50 pm39 °FPassing clouds.3 mph75%30.04 "Hg19 mi
7:50 pm39 °FScattered clouds.6 mph75%30.04 "Hg19 mi
6:50 pm48 °FScattered clouds.3 mph43%30.04 "Hg19 mi
5:50 pm48 °FPartly sunny.6 mph43%30.04 "Hg19 mi
4:50 pm46 °FPartly sunny.5 mph46%30.04 "Hg19 mi
Weather by CustomWeather, © 2017

See weather overviewHow to use our weather pages